Time,TemperatureF,DewpointF,PressureIn,WindDirection,WindDirectionDegrees,WindSpeedMPH,WindSpeedGustMPH,Humidity,HourlyPrecipIn,Conditions,Clouds,dailyrainin,SoftwareType,DateUTC
2013-11-09 00:00:00,45.4,15.8,30.30,North,0,0.0,0.0,30,0.00,,---,0.00,VWS V14.01,2013-11-09 05:00:00,
2013-11-09 00:30:00,45.4,15.8,30.28,North,0,0.0,0.0,30,0.00,,---,0.00,VWS V14.01,2013-11-09 05:30:00,
2013-11-09 01:00:00,45.4,15.8,30.27,North,0,0.0,0.0,30,0.00,,---,0.00,VWS V14.01,2013-11-09 06:00:00,
2013-11-09 01:30:00,45.4,15.8,30.26,North,0,0.0,0.0,30,0.00,,---,0.00,VWS V14.01,2013-11-09 06:30:00,
2013-11-09 02:00:00,45.4,15.8,30.26,North,0,0.0,0.0,30,0.00,,---,0.00,VWS V14.01,2013-11-09 07:00:00,
2013-11-09 02:30:00,45.4,15.8,30.26,North,0,0.0,0.0,30,0.00,,---,0.00,VWS V14.01,2013-11-09 07:30:00,
2013-11-09 03:00:00,45.4,15.8,30.26,North,0,0.0,0.0,30,0.00,,---,0.00,VWS V14.01,2013-11-09 08:00:00,
2013-11-09 03:30:00,45.4,15.8,30.28,North,0,0.0,0.0,30,0.00,,---,0.00,VWS V14.01,2013-11-09 08:30:00,
2013-11-09 04:00:00,45.4,15.8,30.28,North,0,0.0,0.0,30,0.00,,---,0.00,VWS V14.01,2013-11-09 09:00:00,
2013-11-09 04:30:00,45.4,15.8,30.18,North,0,0.0,0.0,30,0.00,,---,0.00,VWS V14.01,2013-11-09 09:30:00,
2013-11-09 05:00:00,45.4,15.8,30.17,North,0,0.0,0.0,30,0.00,,---,0.00,VWS V14.01,2013-11-09 10:00:00,
2013-11-09 05:30:00,45.4,15.8,30.17,North,0,0.0,0.0,30,0.00,,---,0.00,VWS V14.01,2013-11-09 10:30:00,
2013-11-09 06:00:00,45.4,15.8,30.17,North,0,0.0,0.0,30,0.00,,---,0.00,VWS V14.01,2013-11-09 11:00:00,
2013-11-09 06:30:00,45.4,15.8,30.19,North,0,0.0,0.0,30,0.00,,---,0.00,VWS V14.01,2013-11-09 11:30:00,
2013-11-09 07:00:00,45.4,15.8,30.19,North,0,0.0,0.0,30,0.00,,---,0.00,VWS V14.01,2013-11-09 12:00:00,
2013-11-09 07:30:00,45.4,15.8,30.19,North,0,0.0,0.0,30,0.00,,---,0.00,VWS V14.01,2013-11-09 12:30:00,
2013-11-09 08:00:00,45.4,15.8,30.19,North,0,0.0,0.0,30,0.00,,---,0.00,VWS V14.01,2013-11-09 13:00:00,
2013-11-09 08:30:00,35.2,23.9,30.41,SE,135,1.0,4.0,63,0.00,,---,0.00,VWS V14.01,2013-11-09 13:30:00,
2013-11-09 09:00:00,38.3,25.2,30.38,SE,135,0.0,4.0,59,0.00,,---,0.00,VWS V14.01,2013-11-09 14:00:00,
2013-11-09 09:30:00,41.3,26.8,30.35,SSE,158,0.0,5.0,56,0.00,,---,0.00,VWS V14.01,2013-11-09 14:30:00,
2013-11-09 10:00:00,42.6,27.6,30.34,SE,135,0.0,6.0,55,0.00,,---,0.00,VWS V14.01,2013-11-09 15:00:00,
2013-11-09 10:30:00,43.2,29.0,30.34,SE,135,0.0,1.0,57,0.00,,---,0.00,VWS V14.01,2013-11-09 15:30:00,
2013-11-09 11:00:00,45.2,29.1,30.32,SSE,158,1.0,5.0,53,0.00,,---,0.00,VWS V14.01,2013-11-09 16:00:00,
2013-11-09 11:30:00,46.8,28.2,30.30,SE,135,0.0,6.0,48,0.00,,---,0.00,VWS V14.01,2013-11-09 16:30:00,
2013-11-09 12:00:00,46.4,30.2,30.28,East,90,0.0,5.0,53,0.00,,---,0.00,VWS V14.01,2013-11-09 17:00:00,
2013-11-09 12:30:00,47.8,29.6,30.26,SSE,158,0.0,7.0,49,0.00,,---,0.00,VWS V14.01,2013-11-09 17:30:00,
2013-11-09 13:00:00,49.5,29.6,30.25,NW,315,0.0,4.0,46,0.00,,---,0.00,VWS V14.01,2013-11-09 18:00:00,
2013-11-09 13:30:00,49.6,31.2,30.25,SSE,158,0.0,7.0,49,0.00,,---,0.00,VWS V14.01,2013-11-09 18:30:00,
2013-11-09 14:00:00,48.8,30.5,30.24,SSE,158,0.0,4.0,49,0.00,,---,0.00,VWS V14.01,2013-11-09 19:00:00,
2013-11-09 14:30:00,47.6,30.4,30.26,SW,225,0.0,1.0,51,0.00,,---,0.00,VWS V14.01,2013-11-09 19:30:00,
2013-11-09 15:00:00,45.9,30.7,30.28,SW,225,0.0,0.0,55,0.00,,---,0.00,VWS V14.01,2013-11-09 20:00:00,
2013-11-09 15:30:00,44.9,29.3,30.29,WNW,292,0.0,6.0,54,0.00,,---,0.00,VWS V14.01,2013-11-09 20:30:00,
2013-11-09 16:00:00,45.5,25.4,30.27,NNW,338,1.0,12.0,45,0.00,,---,0.00,VWS V14.01,2013-11-09 21:00:00,
2013-11-09 16:30:00,46.0,26.4,30.25,North,0,2.0,10.0,46,0.00,,---,0.00,VWS V14.01,2013-11-09 21:30:00,
2013-11-09 17:00:00,46.0,26.4,30.13,North,0,2.0,0.0,46,0.00,,---,0.00,VWS V14.01,2013-11-09 22:00:00,
2013-11-09 17:30:00,46.0,26.4,30.11,North,0,2.0,0.0,46,0.00,,---,0.00,VWS V14.01,2013-11-09 22:30:00,
2013-11-09 18:00:00,46.0,26.4,30.11,North,0,2.0,0.0,46,0.00,,---,0.00,VWS V14.01,2013-11-09 23:00:00,
2013-11-09 18:30:00,46.0,26.4,30.12,North,0,2.0,0.0,46,0.00,,---,0.00,VWS V14.01,2013-11-09 23:30:00,
2013-11-09 19:00:00,46.0,26.4,30.13,North,0,2.0,0.0,46,0.00,,---,0.00,VWS V14.01,2013-11-10 00:00:00,
2013-11-09 19:30:00,46.0,26.4,30.14,North,0,2.0,0.0,46,0.00,,---,0.00,VWS V14.01,2013-11-10 00:30:00,
2013-11-09 20:00:00,46.0,26.4,30.13,North,0,2.0,0.0,46,0.00,,---,0.00,VWS V14.01,2013-11-10 01:00:00,
2013-11-09 20:30:00,46.0,26.4,30.29,North,0,2.0,0.0,46,0.00,,---,0.00,VWS V14.01,2013-11-10 01:30:00,
2013-11-09 21:00:00,46.0,26.4,30.30,North,0,2.0,0.0,46,0.00,,---,0.00,VWS V14.01,2013-11-10 02:00:00,
2013-11-09 21:30:00,46.0,26.4,30.28,North,0,2.0,0.0,46,0.00,,---,0.00,VWS V14.01,2013-11-10 02:30:00,
2013-11-09 22:00:00,46.0,26.4,30.28,North,0,2.0,0.0,46,0.00,,---,0.00,VWS V14.01,2013-11-10 03:00:00,
2013-11-09 22:30:00,46.0,26.4,30.25,North,0,2.0,0.0,46,0.00,,---,0.00,VWS V14.01,2013-11-10 03:30:00,
2013-11-09 23:00:00,46.0,26.4,30.25,North,0,2.0,0.0,46,0.00,,---,0.00,VWS V14.01,2013-11-10 04:00:00,
2013-11-09 23:30:00,46.0,26.4,30.23,North,0,2.0,0.0,46,0.00,,---,0.00,VWS V14.01,2013-11-10 04:30:00,